Flag for Switzerland Weather past 2 weeks in Biel, Switzerland

Now
63 °F

Mild.


Feels Like: 63 °F
Forecast: 52 / 75 °F
Wind: 3 mph from Southwest

Location: Grenchen

Current Time: Aug 27, 2014 at 11:27:28 AM

Latest Report: Aug 27, 2014 at 10:00 AM


Visibility: N/A

Pressure: 29.99 "Hg

Humidity: 84%

Dew point: 58 °F

Location of BielLocation

Historic Weather in Biel — Graph

°F

Biel temperature yesterday

Maximum temperature yesterday: 68 °F (at 6:00 PM)
Minimum temperature yesterday: 55 °F (at 1:00 AM)
Average temperature yesterday: 61 °F

Past Weeks' High & Low Weather Summary

 TemperatureHumidityPressure
High74 °F (Aug 18, 3:00 PM)100% (Aug 17, 6:00 AM)30.24 "Hg (Aug 17, 6:00 AM)
Low47 °F (Aug 17, 7:00 AM)41% (Aug 21, 3:00 PM)29.69 "Hg (Aug 13, 9:00 AM)
Average59 °F76%30.00 "Hg
* Reported Aug 12 10:00 AM — Aug 27 10:00 AM, Biel, Weather by CustomWeather, © 2014

Note: Actual official high and low records may vary slightly from our data, if they occured in-between our weather recording intervals... More about our weather records

Advertising

Biel weather history for previous 24 hours

 ConditionsComfort  
Time TempWeatherWind HumidityBarometerVisibility
10:00 AM
Aug 27
63 °FMild.3 mph84%29.99 "HgN/A
9:00 AM63 °FMild.3 mph85%29.98 "HgN/A
8:00 AM60 °FCool.7 mph94%29.97 "HgN/A
7:00 AM59 °FCool.7 mph97%29.96 "HgN/A
6:00 AM57 °FCool.2 mph98%29.95 "HgN/A
5:00 AM58 °FCool.1 mph97%29.93 "HgN/A
4:00 AM59 °FCool.2 mph95%29.92 "HgN/A
3:00 AM60 °FCool.5 mph94%29.91 "HgN/A
2:00 AM60 °FCool.5 mph92%29.90 "HgN/A
1:00 AM60 °FCool.7 mph92%29.89 "HgN/A
12:00 AM62 °FCool.1 mph87%29.87 "HgN/A
11:00 PM
Aug 26
62 °FCool.1 mph86%29.86 "HgN/A
10:00 PM62 °FCool.3 mph85%29.86 "HgN/A
9:00 PM64 °FMild.6 mph75%29.84 "HgN/A
8:00 PM65 °FMild.3 mph77%29.82 "HgN/A
7:00 PM67 °FMild.10 mph71%29.80 "HgN/A
6:00 PM68 °FMild.13 mph76%29.79 "HgN/A
5:00 PM65 °FMild.13 mph85%29.80 "HgN/A
4:00 PM65 °FMild.14 mph86%29.80 "HgN/A
3:00 PM62 °FMild.8 mph91%29.83 "HgN/A
2:00 PM62 °FMild.10 mph91%29.83 "HgN/A
1:00 PM60 °FCool.10 mph92%29.84 "HgN/A
12:00 PM60 °FCool.10 mph93%29.85 "HgN/A
11:00 AM61 °FCool.16 mph85%29.83 "HgN/A
Weather by CustomWeather, © 2014

See weather overviewHow to use our weather pages